Find Starlink 5605

NORAD ID: 55411 Int'l Des: 2023-014 Owner: SPXS Country: US Constellation: starlink operational
LEOCIRCULAR

当前视图

正在加载3D地球...

About Starlink 5605

Starlink 5605 (NORAD 55411) is a starlink constellation satellite (v1.5) launched Jan 31, 2023 by SPXS of US. It operates in LEO, CIRCULAR orbit with a mass of 305.00 kg.

即将过境

Passes for default location (London). Set your location on the main map for personalized predictions.

高度历史

Loading altitude history...

两行轨道根数

1 55411U 23014W 26263.51481121 .00000312 00000-0 33908-4 0 9991
2 55411 69.9976 293.4235 0003440 269.4147 90.6618 14.98331762201238
Epoch: Sep 20, 2026 • Age: 21 hours

当前状态

高度 580.2 km
远地点 / 近地点 N/A
速度 7.57 km/s
星下点 45.56°N, 57.27°W
发射日期 Jan 31, 2023
运行时间 3.6 years
类型 internet

技术详情

分类 Payload
质量 305.00 kg
干质量 290.00 kg
长度 0.20 m
跨度 9.00 m
形状 ? Box + pan
制造商 SPXS
平台类型 Starlink
阶段状态 In Orbit
所有者/国家 SPXS/US

Most Searched